Location: Peterborough
(44.3091°N, 78.3197°W)
Time: 01:26:47
(UTC-04:00)

Vanguard 1 Rocket - Pass Details

Date: 29 March 2023
Orbit: 655 x 4220 km, 34.3° (Epoch: 02 June)

Event Time Altitude Azimuth Distance (km) Brightness Sun altitude
Rises 20:06:21 0° 201° (SSW) 8,031 12.3 -6.1°
Reaches altitude 10° 20:12:58 10° 191° (SSW) 7,269 12.0 -7.2°
Maximum altitude 20:32:57 30° 141° (SE) 5,684 11.0 -10.7°
Enters shadow 20:48:24 13° 94° (E) 6,108 11.0 -13.3°
